Location: Marysville Observatory
(48.1092°N, 122.1645°W)
Time: 04:51:08
(UTC-07:00)

ISS - Visible Passes

Search period start: 01 August 2014 00:00
Search period end: 11 August 2014 00:00
Orbit: 411 x 419 km, 51.6° (Epoch: 01 August)

Date Brightness Start Highest point End Pass type
(mag) Time Alt. Az. Time Alt. Az. Time Alt. Az.
01 Aug -1.7 01:28:37 33° NE 01:28:37 33° NE 01:30:48 10° ENE visible
01 Aug -2.4 03:01:30 11° WNW 03:04:36 51° N 03:07:53 10° E visible
01 Aug -3.1 04:38:04 10° WNW 04:41:22 52° SSW 04:44:38 10° SE visible
02 Aug -2.2 02:14:51 37° NW 02:15:39 45° N 02:18:55 10° E visible
02 Aug -3.4 03:49:11 10° WNW 03:52:33 78° SSW 03:55:55 10° ESE visible
02 Aug -2.3 22:10:22 10° SSW 22:13:12 26° SE 22:14:16 22° ESE visible
02 Aug -1.1 23:46:22 10° WSW 23:47:23 19° WSW 23:47:23 19° WSW visible
03 Aug -0.6 01:29:19 14° ENE 01:29:19 14° ENE 01:29:56 10° ENE visible
03 Aug -3.2 03:02:22 34° WNW 03:03:41 77° NNE 03:07:03 10° ESE visible
03 Aug -2.2 04:37:22 10° W 04:40:10 24° SW 04:42:57 10° SSE visible
03 Aug -1.7 21:22:17 10° S 21:24:31 17° SE 21:26:46 10° E visible
03 Aug -3.4 22:57:29 10° WSW 23:00:50 82° SSE 23:02:56 21° ENE visible
04 Aug -1.1 00:34:30 10° W 00:35:53 22° WNW 00:35:53 22° WNW visible
04 Aug -2.3 03:52:25 29° S 03:52:25 29° S 03:54:33 10° SE visible
04 Aug -3.2 22:08:43 10° SW 22:11:59 56° SSE 22:15:17 10° ENE visible
04 Aug -2.4 23:45:30 10° W 23:48:46 49° N 23:49:33 39° NE visible
05 Aug -2.7 21:20:06 10° SW 21:23:11 36° SE 21:26:18 10° ENE visible
05 Aug -2.7 22:56:31 10° W 22:59:49 60° NNW 23:02:37 14° ENE visible
06 Aug -1.4 00:33:38 10° WNW 00:35:29 27° NW 00:35:29 27° NW visible
06 Aug -3.2 22:07:33 10° WSW 22:10:53 78° NNW 22:14:15 10° ENE visible
06 Aug -2.1 23:44:39 10° WNW 23:47:52 43° N 23:48:20 40° NNE visible
07 Aug -3.3 21:18:40 10° WSW 21:22:00 76° SSE 21:25:20 10° ENE visible
07 Aug -2.2 22:55:39 10° W 22:58:53 45° N 23:01:05 18° ENE visible
08 Aug -1.0 00:32:37 10° WNW 00:33:56 21° WNW 00:33:56 21° WNW visible
08 Aug -2.4 22:06:37 10° W 22:09:53 51° N 22:13:10 10° ENE visible
08 Aug -2.2 23:43:41 10° WNW 23:46:38 46° N 23:46:38 46° N visible
09 Aug -2.8 21:17:36 10° W 21:20:54 63° NNW 21:24:14 10° ENE visible
09 Aug -2.2 22:54:43 10° WNW 22:57:56 44° N 22:59:19 27° ENE visible
10 Aug -0.6 00:31:30 10° WNW 00:32:10 15° WNW 00:32:10 15° WNW visible
10 Aug -2.2 22:05:42 10° WNW 22:08:55 43° N 22:11:59 11° ENE visible
10 Aug -1.9 23:42:35 10° WNW 23:44:50 38° NW 23:44:50 38° NW visible
